Regional Weather Roundup
Issued by NWS Kansas City/Pleasant Hill, MO

Home | Current Version | Previous Version | Graphics & Text | Print | Product List | Glossary Off
Versions: 1 2 3 4 5 6 7 8 9 10 11 12 13 14 15 16 17 18 19 20 21 22 23 24 25 26 27

000
ASUS43 KEAX 041610
RWREAX

WEATHER ROUNDUP FOR EASTERN KANSAS AND NORTHWEST MISSOURI
NATIONAL WEATHER SERVICE KANSAS CITY/PLEASANT HILL MO
1000 AM CST SUN DEC 04 2016

KSZ040-057-103>105-MOZ028-029-037-043-041700-
...KANSAS CITY METROPOLITAN AREA...

CITY           SKY/WX    TMP DP  RH WIND       PRES   REMARKS
K.C. INTL      PTSUNNY   40  36  86 W8        30.01S WCI  34
K.C. DOWNTOWN  PTSUNNY   41  38  89 VRB3      30.02S
LEES SUMMIT    CLOUDY    38  36  92 W7        30.02S WCI  33
OLATHE - IXD   PTSUNNY   39  37  92 W8        30.02S WCI  33
OLATHE - OJC   CLOUDY    38  36  92 W3        30.01F
LAWRENCE       CLOUDY    41  38  89 W8        30.04R

$$

MOZ001>008-011>017-020>025-030>033-038>040-044>046-053-054-041700-
...NORTHERN AND CENTRAL MISSOURI...

CITY           SKY/WX    TMP DP  RH WIND       PRES   REMARKS
ST. JOSEPH     CLOUDY    39  36  89 SW6       30.02R WCI  35
MOSBY          CLOUDY    37  36  93 W5        30.02F WCI  34
WARRENSBURG    DRIZZLE   37  37 100 SW5       30.02S WCI  34
WHITEMAN AFB   LGT RAIN  36  36 100 CALM      30.01S
CLINTON        LGT RAIN  39  39 100 SW7       30.04R WCI  34
SEDALIA        LGT SNOW  34  32  92 CALM      30.03S FOG
WARSAW         NOT AVBL
CHILLICOTHE      N/A     33  33 100 CALM      30.03R
KIRKSVILLE     SNOW      33  33 100 S5        30.01R VSB 1/2 WCI  29

$$

MOZ041-047>049-056>058-063>065-088>090-097-041700-
...EASTERN AND SOUTHERN MISSOURI...

CITY           SKY/WX    TMP DP  RH WIND       PRES   REMARKS
ST. LOUIS INTL LGT RAIN  39  35  86 SE7       30.02F FOG     WCI  34
SPIRIT OF STL  LGT RAIN  38  38 100 CALM      30.02F FOG
COLUMBIA       LGT SNOW  34  33  96 S6        30.01F FOG     WCI  29
JEFFERSON CITY LGT RAIN  37  35  92 S5        30.03S WCI  33
ROLLA          LGT RAIN  37  36  96 SW7       30.00R FOG     WCI  32
OSAGE BEACH    RAIN      37  36  96 SW3       30.03S FOG
SPRINGFIELD    CLOUDY    41  39  93 SW7       30.00F
BRANSON        CLOUDY    39  39 100 CALM      30.03R FOG
JOPLIN         CLOUDY    42  42 100 W10       30.06R
WEST PLAINS    LGT RAIN  39  37  92 W6        30.03S FOG     WCI  35

$$

IAZ060-094-KSZ022-034>040-054-083-096-NEZ052-066-093-041700-
...KANSAS...SOUTHEAST NEBRASKA AND IOWA...

CITY           SKY/WX    TMP DP  RH WIND       PRES   REMARKS
TOPEKA         CLOUDY    41  37  86 W9        30.04R
MANHATTAN      CLOUDY    35  34  96 W8        30.06S FOG     WCI  29
EMPORIA        CLOUDY    41  37  86 W9        30.04S
CHANUTE        PTSUNNY   43  38  82 NW10      30.05R
WICHITA        FOG       37  36  96 NW9       30.07R VSB 1/2 WCI  30
OMAHA          PTSUNNY   35  30  82 SW6       29.99S WCI  30
LINCOLN        CLOUDY    32  31  96 SW10      30.01S WCI  24
FALLS CITY     CLOUDY    35  34  96 W9        30.03R WCI  28
LAMONI         CLOUDY    33  33 100 S7        29.98S WCI  27
DES MOINES     FLURRIES  34  32  92 S6        29.98S WCI  29

$$





USA.gov is the U.S. government's official web portal to all federal, state and local government web resources and services.